OKK25 LKPR-LKTB

Flight info

Callsign OKK25
Flight time 0h 59m
Altitude 9000
Route VOZ DCT TUMKA
Aircraft DA40/L-SBDGRY/S

Departure

Time 2026-05-04 18:18
Airport Václav Havel Airport Prague (LKPR)

Arrival

Time 2026-05-04 19:17
Airport Brno-Tuřany Airport (LKTB)
Time Latitude Longitude Altitude Speed Heading
2026-05-04 17:54 50.09652 14.28100 1210 ft 0 kts 169°
2026-05-04 17:56 50.09653 14.28100 1210 ft 0 kts 169°
2026-05-04 17:56 50.09653 14.28099 1210 ft 0 kts 169°
2026-05-04 17:58 50.09654 14.28099 1210 ft 0 kts 169°
2026-05-04 18:01 50.09655 14.28099 1210 ft 0 kts 169°
2026-05-04 18:03 50.09656 14.28099 1210 ft 0 kts 169°
2026-05-04 18:04 50.09656 14.28098 1210 ft 0 kts 169°
2026-05-04 18:05 50.09657 14.28098 1210 ft 0 kts 169°
2026-05-04 18:08 50.09658 14.28098 1210 ft 0 kts 169°
2026-05-04 18:12 50.09657 14.28121 1210 ft 7 kts 55°
2026-05-04 18:12 50.09730 14.28202 1207 ft 18 kts 43°
2026-05-04 18:13 50.09755 14.28221 1206 ft 5 kts 245°
2026-05-04 18:13 50.09729 14.28181 1207 ft 5 kts 159°
2026-05-04 18:13 50.09646 14.28255 1211 ft 7 kts 127°
2026-05-04 18:14 50.09646 14.28349 1212 ft 13 kts 77°
2026-05-04 18:14 50.09673 14.28487 1211 ft 15 kts 23°
2026-05-04 18:14 50.09799 14.28467 1205 ft 20 kts 347°
2026-05-04 18:15 50.09956 14.28260 1193 ft 8 kts 298°
2026-05-04 18:15 50.09964 14.28029 1191 ft 16 kts 220°
2026-05-04 18:15 50.09976 14.27994 1190 ft 11 kts 329°
2026-05-04 18:16 50.09988 14.27852 1191 ft 20 kts 261°
2026-05-04 18:16 50.09967 14.27621 1194 ft 16 kts 262°
2026-05-04 18:16 50.09951 14.27451 1197 ft 18 kts 261°
2026-05-04 18:17 50.09918 14.27091 1202 ft 14 kts 261°
2026-05-04 18:17 50.09897 14.26870 1205 ft 25 kts 261°
2026-05-04 18:17 50.09868 14.26478 1205 ft 13 kts 278°
2026-05-04 18:18 50.09976 14.26238 1195 ft 57 kts 307°
2026-05-04 18:18 50.10309 14.25577 1308 ft 83 kts 311°
2026-05-04 18:18 50.10660 14.24886 1502 ft 95 kts 310°
2026-05-04 18:18 50.11009 14.24124 1905 ft 76 kts 306°
2026-05-04 18:19 50.11557 14.22650 2376 ft 88 kts 300°
2026-05-04 18:19 50.11848 14.21794 2571 ft 95 kts 284°
2026-05-04 18:19 50.11416 14.21500 2784 ft 87 kts 165°
2026-05-04 18:20 50.10810 14.21664 3001 ft 90 kts 174°
2026-05-04 18:20 50.10221 14.21908 3205 ft 94 kts 158°
2026-05-04 18:20 50.09650 14.22420 3406 ft 97 kts 160°
2026-05-04 18:20 50.08975 14.22599 3596 ft 101 kts 168°
2026-05-04 18:21 50.08257 14.22788 3731 ft 108 kts 169°
2026-05-04 18:21 50.07500 14.22963 3869 ft 112 kts 170°
2026-05-04 18:21 50.06719 14.23131 4002 ft 115 kts 171°
2026-05-04 18:21 50.05950 14.23308 4113 ft 116 kts 167°
2026-05-04 18:22 50.05159 14.23492 4259 ft 115 kts 168°
2026-05-04 18:22 50.04362 14.23663 4396 ft 115 kts 168°
2026-05-04 18:22 50.03639 14.23831 4529 ft 116 kts 169°
2026-05-04 18:22 50.02852 14.23992 4664 ft 116 kts 169°
2026-05-04 18:23 50.02063 14.24144 4816 ft 116 kts 170°
2026-05-04 18:23 50.01276 14.24295 4949 ft 117 kts 170°
2026-05-04 18:23 50.00496 14.24448 5088 ft 116 kts 170°
2026-05-04 18:23 49.99681 14.24608 5233 ft 117 kts 170°
2026-05-04 18:24 49.98875 14.24769 5372 ft 117 kts 170°
2026-05-04 18:24 49.98075 14.24928 5522 ft 117 kts 171°
2026-05-04 18:24 49.97256 14.25091 5668 ft 117 kts 171°
2026-05-04 18:24 49.96454 14.25252 5813 ft 116 kts 172°
2026-05-04 18:25 49.95692 14.25405 5954 ft 116 kts 172°
2026-05-04 18:25 49.94893 14.25566 6103 ft 117 kts 172°
2026-05-04 18:25 49.94086 14.25727 6251 ft 117 kts 172°
2026-05-04 18:25 49.93278 14.25889 6395 ft 117 kts 172°
2026-05-04 18:26 49.92456 14.26054 6540 ft 117 kts 172°
2026-05-04 18:26 49.91661 14.26213 6685 ft 117 kts 172°
2026-05-04 18:26 49.90865 14.26373 6826 ft 117 kts 173°
2026-05-04 18:26 49.90043 14.26538 6969 ft 118 kts 173°
2026-05-04 18:27 49.89230 14.26699 7110 ft 119 kts 173°
2026-05-04 18:27 49.88412 14.26863 7253 ft 118 kts 173°
2026-05-04 18:27 49.87596 14.27032 7400 ft 118 kts 173°
2026-05-04 18:27 49.86787 14.27226 7553 ft 119 kts 166°
2026-05-04 18:28 49.86097 14.27927 7726 ft 122 kts 133°
2026-05-04 18:28 49.85586 14.28988 7874 ft 124 kts 129°
2026-05-04 18:28 49.85059 14.30052 8021 ft 125 kts 129°
2026-05-04 18:28 49.84532 14.31126 8166 ft 125 kts 129°
2026-05-04 18:29 49.84062 14.32082 8297 ft 126 kts 129°
2026-05-04 18:29 49.83528 14.33170 8444 ft 127 kts 129°
2026-05-04 18:29 49.82996 14.34261 8592 ft 127 kts 130°
2026-05-04 18:29 49.82535 14.35204 8721 ft 128 kts 130°
2026-05-04 18:30 49.81445 14.37431 9000 ft 131 kts 130°
2026-05-04 18:30 49.80873 14.38599 9003 ft 140 kts 130°
2026-05-04 18:30 49.80276 14.39818 9007 ft 144 kts 130°
2026-05-04 18:31 49.79665 14.41063 9009 ft 146 kts 130°
2026-05-04 18:31 49.79051 14.42316 9008 ft 147 kts 130°
2026-05-04 18:31 49.78489 14.43462 9011 ft 147 kts 130°
2026-05-04 18:31 49.77869 14.44729 9009 ft 148 kts 130°
2026-05-04 18:32 49.77245 14.45997 9004 ft 148 kts 130°
2026-05-04 18:32 49.76623 14.47261 9005 ft 148 kts 130°
2026-05-04 18:32 49.75997 14.48535 9002 ft 149 kts 130°
2026-05-04 18:32 49.75368 14.49812 8998 ft 149 kts 130°
2026-05-04 18:33 49.74740 14.51089 8993 ft 149 kts 130°
2026-05-04 18:33 49.74112 14.52364 8995 ft 149 kts 130°
2026-05-04 18:33 49.73485 14.53635 8993 ft 149 kts 130°
2026-05-04 18:33 49.72861 14.54901 8996 ft 148 kts 130°
2026-05-04 18:34 49.72238 14.56164 8993 ft 147 kts 130°
2026-05-04 18:34 49.71619 14.57417 8995 ft 147 kts 130°
2026-05-04 18:34 49.71277 14.58109 8990 ft 146 kts 130°
2026-05-04 18:34 49.70668 14.59344 8990 ft 146 kts 130°
2026-05-04 18:35 49.70051 14.60591 8992 ft 146 kts 130°
2026-05-04 18:35 49.69433 14.61841 8991 ft 146 kts 130°
2026-05-04 18:35 49.68761 14.63004 8991 ft 145 kts 137°
2026-05-04 18:35 49.68055 14.64109 8991 ft 145 kts 137°
2026-05-04 18:36 49.67352 14.65221 8990 ft 145 kts 137°
2026-05-04 18:36 49.66652 14.66333 8991 ft 144 kts 137°
2026-05-04 18:36 49.65950 14.67447 8989 ft 145 kts 137°
2026-05-04 18:36 49.65249 14.68558 8989 ft 145 kts 137°
2026-05-04 18:37 49.64545 14.69674 8990 ft 145 kts 137°
2026-05-04 18:37 49.63843 14.70788 8992 ft 144 kts 137°
2026-05-04 18:37 49.63252 14.71721 8992 ft 144 kts 137°
2026-05-04 18:37 49.62552 14.72829 8993 ft 144 kts 137°
2026-05-04 18:38 49.61849 14.73927 8991 ft 144 kts 137°
2026-05-04 18:38 49.61148 14.75034 8991 ft 144 kts 137°
2026-05-04 18:38 49.60446 14.76148 8992 ft 145 kts 137°
2026-05-04 18:38 49.59744 14.77263 8990 ft 145 kts 137°
2026-05-04 18:39 49.59084 14.78318 8990 ft 145 kts 136°
2026-05-04 18:39 49.58386 14.79429 8987 ft 145 kts 137°
2026-05-04 18:39 49.57680 14.80538 8988 ft 145 kts 137°
2026-05-04 18:39 49.56983 14.81632 8988 ft 145 kts 137°
2026-05-04 18:40 49.56273 14.82750 8993 ft 144 kts 137°
2026-05-04 18:40 49.55568 14.83857 8991 ft 145 kts 137°
2026-05-04 18:40 49.54916 14.84884 8985 ft 145 kts 137°
2026-05-04 18:40 49.54211 14.85992 8987 ft 145 kts 137°
2026-05-04 18:41 49.53516 14.87122 8996 ft 147 kts 130°
2026-05-04 18:41 49.53127 14.88585 9008 ft 151 kts 101°
2026-05-04 18:41 49.52965 14.90191 9002 ft 152 kts 101°
2026-05-04 18:41 49.52796 14.91684 8998 ft 152 kts 101°
2026-05-04 18:42 49.52616 14.93285 8990 ft 152 kts 101°
2026-05-04 18:42 49.52436 14.94889 8987 ft 152 kts 101°
2026-05-04 18:42 49.52256 14.96493 8986 ft 152 kts 101°
2026-05-04 18:42 49.52077 14.98098 8986 ft 153 kts 101°
2026-05-04 18:43 49.51899 14.99690 8989 ft 153 kts 102°
2026-05-04 18:43 49.51717 15.01301 8989 ft 153 kts 102°
2026-05-04 18:43 49.51537 15.02913 8984 ft 153 kts 101°
2026-05-04 18:43 49.51356 15.04523 8985 ft 153 kts 101°
2026-05-04 18:44 49.51175 15.06133 8991 ft 153 kts 101°
2026-05-04 18:44 49.51052 15.07222 8988 ft 153 kts 102°
2026-05-04 18:44 49.50812 15.09348 8989 ft 152 kts 102°
2026-05-04 18:44 49.50636 15.10900 8987 ft 152 kts 102°
2026-05-04 18:45 49.50454 15.12502 8988 ft 152 kts 101°
2026-05-04 18:45 49.50272 15.14111 8989 ft 152 kts 101°
2026-05-04 18:45 49.50093 15.15691 8990 ft 152 kts 102°
2026-05-04 18:45 49.49909 15.17296 8989 ft 152 kts 102°
2026-05-04 18:46 49.49727 15.18894 8990 ft 151 kts 102°
2026-05-04 18:46 49.49545 15.20490 8992 ft 152 kts 101°
2026-05-04 18:46 49.49361 15.22093 8991 ft 152 kts 102°
2026-05-04 18:46 49.49179 15.23689 8990 ft 152 kts 102°
2026-05-04 18:47 49.48996 15.25284 8990 ft 152 kts 102°
2026-05-04 18:47 49.48823 15.26783 8989 ft 152 kts 102°
2026-05-04 18:47 49.48641 15.28381 8987 ft 152 kts 102°
2026-05-04 18:47 49.48456 15.29983 8987 ft 152 kts 102°
2026-05-04 18:48 49.48272 15.31582 8992 ft 152 kts 102°
2026-05-04 18:48 49.48087 15.33180 8991 ft 152 kts 102°
2026-05-04 18:48 49.47903 15.34783 8990 ft 153 kts 102°
2026-05-04 18:48 49.47717 15.36390 8992 ft 153 kts 102°
2026-05-04 18:49 49.47531 15.38000 8983 ft 152 kts 101°
2026-05-04 18:49 49.47346 15.39599 8989 ft 151 kts 102°
2026-05-04 18:49 49.47166 15.41138 8989 ft 142 kts 101°
2026-05-04 18:49 49.46995 15.42618 8990 ft 143 kts 101°
2026-05-04 18:50 49.46816 15.44148 8992 ft 144 kts 102°
2026-05-04 18:50 49.46669 15.45416 8992 ft 144 kts 101°
2026-05-04 18:50 49.46487 15.46979 8991 ft 143 kts 102°
2026-05-04 18:50 49.46308 15.48506 8993 ft 144 kts 101°
2026-05-04 18:51 49.46152 15.49845 8993 ft 144 kts 102°
2026-05-04 18:51 49.45977 15.51344 8992 ft 144 kts 102°
2026-05-04 18:51 49.45799 15.52861 8991 ft 144 kts 102°
2026-05-04 18:51 49.45642 15.54210 8992 ft 143 kts 102°
2026-05-04 18:52 49.45462 15.55740 8997 ft 144 kts 102°
2026-05-04 18:52 49.45284 15.57259 8996 ft 144 kts 102°
2026-05-04 18:52 49.45106 15.58773 8998 ft 144 kts 102°
2026-05-04 18:52 49.44927 15.60288 8997 ft 144 kts 102°
2026-05-04 18:53 49.44749 15.61801 8993 ft 144 kts 102°
2026-05-04 18:53 49.44571 15.63314 8995 ft 144 kts 102°
2026-05-04 18:53 49.44392 15.64824 8994 ft 144 kts 102°
2026-05-04 18:53 49.44214 15.66339 8993 ft 144 kts 102°
2026-05-04 18:54 49.44034 15.67849 8997 ft 144 kts 102°
2026-05-04 18:54 49.43855 15.69366 8997 ft 144 kts 102°
2026-05-04 18:54 49.43678 15.70858 8997 ft 144 kts 102°
2026-05-04 18:54 49.43498 15.72371 8996 ft 144 kts 102°
2026-05-04 18:55 49.43315 15.73907 9000 ft 145 kts 102°
2026-05-04 18:55 49.42953 15.76941 8999 ft 144 kts 102°
2026-05-04 18:55 49.42775 15.78435 9002 ft 144 kts 102°
2026-05-04 18:56 49.42593 15.79943 9006 ft 143 kts 102°
2026-05-04 18:56 49.42409 15.81450 9002 ft 143 kts 101°
2026-05-04 18:56 49.42231 15.82948 9003 ft 143 kts 102°
2026-05-04 18:56 49.42050 15.84467 9001 ft 143 kts 102°
2026-05-04 18:57 49.41872 15.85966 9001 ft 143 kts 102°
2026-05-04 18:57 49.41692 15.87463 9001 ft 143 kts 101°
2026-05-04 18:57 49.41529 15.88830 9003 ft 143 kts 102°
2026-05-04 18:57 49.41349 15.90323 9005 ft 143 kts 102°
2026-05-04 18:58 49.41168 15.91823 9004 ft 143 kts 102°
2026-05-04 18:58 49.40986 15.93325 9005 ft 143 kts 102°
2026-05-04 18:58 49.40779 15.94810 8998 ft 141 kts 111°
2026-05-04 18:58 49.40310 15.96107 9005 ft 139 kts 123°
2026-05-04 18:59 49.39831 15.97398 9003 ft 139 kts 121°
2026-05-04 18:59 49.39354 15.98692 9002 ft 139 kts 121°
2026-05-04 18:59 49.38877 15.99988 9003 ft 139 kts 121°
2026-05-04 18:59 49.38399 16.01282 9003 ft 139 kts 122°
2026-05-04 19:00 49.37918 16.02541 9007 ft 139 kts 122°
2026-05-04 19:00 49.37468 16.03744 9005 ft 139 kts 122°
2026-05-04 19:00 49.36993 16.05041 9005 ft 139 kts 121°
2026-05-04 19:00 49.36535 16.06276 9010 ft 138 kts 120°
2026-05-04 19:01 49.36088 16.07575 9009 ft 138 kts 117°
2026-05-04 19:01 49.35637 16.08875 9008 ft 138 kts 120°
2026-05-04 19:01 49.35179 16.10105 9005 ft 138 kts 121°
2026-05-04 19:01 49.34686 16.11396 8912 ft 141 kts 121°
2026-05-04 19:02 49.34191 16.12696 8776 ft 139 kts 121°
2026-05-04 19:02 49.33719 16.13955 8643 ft 138 kts 120°
2026-05-04 19:02 49.33240 16.15231 8509 ft 138 kts 120°
2026-05-04 19:02 49.32786 16.16453 8379 ft 138 kts 120°
2026-05-04 19:03 49.32276 16.17689 8229 ft 137 kts 128°
2026-05-04 19:03 49.31677 16.18814 8047 ft 135 kts 129°
2026-05-04 19:03 49.31094 16.19921 7790 ft 133 kts 128°
2026-05-04 19:03 49.30519 16.21027 7532 ft 132 kts 128°
2026-05-04 19:04 49.29949 16.22123 7280 ft 131 kts 128°
2026-05-04 19:04 49.29385 16.23207 7031 ft 130 kts 127°
2026-05-04 19:04 49.28825 16.24281 6784 ft 128 kts 127°
2026-05-04 19:04 49.28271 16.25343 6540 ft 127 kts 127°
2026-05-04 19:05 49.27721 16.26401 6291 ft 127 kts 127°
2026-05-04 19:05 49.27175 16.27448 6029 ft 125 kts 127°
2026-05-04 19:05 49.26636 16.28481 5772 ft 124 kts 127°
2026-05-04 19:05 49.26104 16.29500 5511 ft 123 kts 128°
2026-05-04 19:06 49.25572 16.30521 5258 ft 122 kts 128°
2026-05-04 19:06 49.25047 16.31527 5005 ft 120 kts 128°
2026-05-04 19:06 49.24525 16.32525 4757 ft 119 kts 129°
2026-05-04 19:06 49.24010 16.33511 4498 ft 118 kts 129°
2026-05-04 19:07 49.23505 16.34477 4246 ft 117 kts 129°
2026-05-04 19:07 49.22988 16.35440 3979 ft 116 kts 135°
2026-05-04 19:07 49.22335 16.36113 3711 ft 112 kts 151°
2026-05-04 19:07 49.21663 16.36698 3466 ft 110 kts 149°
2026-05-04 19:08 49.21007 16.37282 3208 ft 109 kts 149°
2026-05-04 19:08 49.20360 16.37855 2998 ft 104 kts 149°
2026-05-04 19:08 49.19746 16.38402 2990 ft 102 kts 149°
2026-05-04 19:08 49.19134 16.38947 2984 ft 100 kts 149°
2026-05-04 19:09 49.18534 16.39478 2986 ft 99 kts 149°
2026-05-04 19:09 49.18012 16.40012 2997 ft 99 kts 137°
2026-05-04 19:09 49.17635 16.40899 3005 ft 100 kts 115°
2026-05-04 19:09 49.17510 16.41942 2996 ft 100 kts 101°
2026-05-04 19:10 49.17422 16.42981 2983 ft 98 kts 103°
2026-05-04 19:10 49.17334 16.44008 2982 ft 97 kts 103°
2026-05-04 19:10 49.17248 16.45031 2984 ft 97 kts 103°
2026-05-04 19:10 49.17160 16.46039 2983 ft 95 kts 103°
2026-05-04 19:11 49.17080 16.47007 2983 ft 88 kts 102°
2026-05-04 19:11 49.17007 16.47855 2987 ft 85 kts 103°
2026-05-04 19:11 49.16926 16.48772 2991 ft 88 kts 104°
2026-05-04 19:11 49.16845 16.49706 2999 ft 89 kts 104°
2026-05-04 19:12 49.16766 16.50653 3003 ft 91 kts 103°
2026-05-04 19:12 49.16607 16.52529 3004 ft 92 kts 104°
2026-05-04 19:12 49.16541 16.53510 2996 ft 94 kts 99°
2026-05-04 19:13 49.16503 16.54472 2953 ft 88 kts 103°
2026-05-04 19:13 49.16421 16.55375 2896 ft 85 kts 105°
2026-05-04 19:13 49.16332 16.56236 2861 ft 79 kts 103°
2026-05-04 19:13 49.16257 16.56996 2813 ft 78 kts 108°
2026-05-04 19:14 49.16157 16.57823 2710 ft 84 kts 109°
2026-05-04 19:14 49.16071 16.58752 2514 ft 90 kts 111°
2026-05-04 19:14 49.15982 16.59717 2375 ft 91 kts 107°
2026-05-04 19:14 49.15922 16.60662 2269 ft 88 kts 110°
2026-05-04 19:15 49.15809 16.61603 2098 ft 92 kts 112°
2026-05-04 19:15 49.15744 16.62234 1901 ft 91 kts 108°
2026-05-04 19:15 49.15650 16.63473 1473 ft 86 kts 103°
2026-05-04 19:15 49.15573 16.64313 1284 ft 76 kts 98°
2026-05-04 19:16 49.15527 16.64817 1202 ft 70 kts 99°
2026-05-04 19:16 49.15463 16.65528 1123 ft 67 kts 97°
2026-05-04 19:16 49.15408 16.66233 1035 ft 71 kts 97°
2026-05-04 19:16 49.15343 16.66980 919 ft 72 kts 97°
2026-05-04 19:17 49.15275 16.67729 800 ft 72 kts 96°
2026-05-04 19:17 49.15211 16.68438 769 ft 67 kts 99°
2026-05-04 19:17 49.15154 16.69080 776 ft 53 kts 98°
2026-05-04 19:17 49.15133 16.69542 779 ft 31 kts 92°
2026-05-04 19:18 49.15122 16.69779 776 ft 23 kts 94°
2026-05-04 19:18 49.15155 16.69842 775 ft 8 kts 342°
2026-05-04 19:18 49.15163 16.69841 775 ft 0 kts
2026-05-04 19:19 49.15164 16.69841 775 ft 2 kts
2026-05-04 19:19 49.15257 16.69860 776 ft 14 kts 355°
2026-05-04 19:19 49.15296 16.69701 776 ft 21 kts 279°
2026-05-04 19:20 49.15313 16.69505 777 ft 18 kts 278°
2026-05-04 19:20 49.15328 16.69331 776 ft 17 kts 278°
2026-05-04 19:20 49.15359 16.69248 777 ft 4 kts 53°
2026-05-04 19:20 49.15374 16.69253 777 ft 0 kts